2018-084K (43681 NORAD) Tracking and Keplerian Element Data

This shows tracking and keplerian element data for the satellite.

Feedback or suggestion? Click here.




ElementValue
Catalog43681
Name2018-084K
Epoch Orbit307
Epoch Day323.14767253
Epoch Year2018
RAAN73.5644
Inclination97.8372
Eccentricity0.0007887
Argument of Perigee286.9477
Mean Anonmoly73.0857
Mean Motion14.91602244
Decay Rate6.57E-06
L11 43681U 18084K 18323.14767253 .00000657 00000-0 71138-4 0 9997
L22 43681 97.8372 73.5644 0007887 286.9477 73.0857 14.91602244 3075

Live tracking and technical data element details for 2018-084K (NORAD 43681). 2018-084K can be tracked NOW for your location showing map with azimuth and elevation plus other details from your city location.

Track the satellite on the map from your city or location and see movement details for azimuth, elevation, latitude, longitude, range, height, and movement on the map or in text.







IsCatalogInMostPopularTable: catalog: 43681, numindb: 9
Update: records affected: 1



GetName: 43681 2018-084K

Hit Count: updated at: Tue, 20 Nov 2018 11:37:35 GMT